| time (UTC) | temp C | wind direction | speed KPH | gust KPH | rain 1hr cm | rain 24hr cm | rain mn cm | humidity % | barometer mb |
| 20260504045845 | 20 | 154 | 0.0 | 4.8 | 0.00 | 0.00 | 0.00 | 62 | 1019.1 |
| 20260504044846 | 20 | 182 | 0.0 | 6.4 | 0.00 | 0.00 | 0.00 | 61 | 1019.2 |
| 20260504043846 | 21 | 179 | 0.0 | 0.0 | 0.00 | 0.00 | 0.00 | 61 | 1019.3 |
| 20260504042830 | 21 | 227 | 0.0 | 3.2 | 0.00 | 0.00 | 0.00 | 61 | 1019.1 |
| 20260504041831 | 21 | 222 | 0.0 | 3.2 | 0.00 | 0.00 | 0.00 | 61 | 1019.1 |
| 20260504040830 | 21 | 101 | 0.0 | 4.8 | 0.00 | 0.00 | 0.00 | 60 | 1019.1 |
| 20260504035830 | 21 | 173 | 0.0 | 3.2 | 0.00 | 0.00 | 0.00 | 60 | 1019.2 |
| 20260504034830 | 21 | 217 | 0.0 | 4.8 | 0.00 | 0.00 | 0.00 | 59 | 1019.2 |
| 20260504033830 | 22 | 150 | 3.2 | 6.4 | 0.00 | 0.00 | 0.00 | 59 | 1019.2 |
| 20260504032830 | 22 | 218 | 1.6 | 4.8 | 0.00 | 0.00 | 0.00 | 58 | 1019.2 |
| 20260504031830 | 22 | 181 | 0.0 | 3.2 | 0.00 | 0.00 | 0.00 | 57 | 1019.2 |
| 20260504030830 | 22 | 172 | 0.0 | 1.6 | 0.00 | 0.00 | 0.00 | 56 | 1019.2 |
| 20260504025830 | 22 | 192 | 0.0 | 9.7 | 0.00 | 0.00 | 0.00 | 56 | 1018.9 |
| 20260504024830 | 23 | 178 | 3.2 | 9.7 | 0.00 | 0.00 | 0.00 | 54 | 1018.9 |
| 20260504023830 | 23 | 168 | 3.2 | 8.0 | 0.00 | 0.00 | 0.00 | 54 | 1018.8 |
| 20260504022830 | 23 | 126 | 1.6 | 6.4 | 0.00 | 0.00 | 0.00 | 53 | 1018.8 |
| 20260504021830 | 23 | 117 | 3.2 | 8.0 | 0.00 | 0.00 | 0.00 | 51 | 1018.6 |
| 20260504020830 | 24 | 153 | 6.4 | 8.0 | 0.00 | 0.00 | 0.00 | 51 | 1018.7 |
| 20260504015829 | 24 | 128 | 3.2 | 12.9 | 0.00 | 0.00 | 0.00 | 50 | 1018.6 |
| 20260504014829 | 25 | 171 | 3.2 | 11.3 | 0.00 | 0.00 | 0.00 | 49 | 1018.5 |
| 20260504013829 | 25 | 134 | 3.2 | 8.0 | 0.00 | 0.00 | 0.00 | 48 | 1018.4 |
| 20260504012829 | 25 | 169 | 3.2 | 9.7 | 0.00 | 0.00 | 0.00 | 47 | 1018.4 |
| 20260504011829 | 26 | 144 | 1.6 | 8.0 | 0.00 | 0.00 | 0.00 | 47 | 1018.3 |
| 20260504010829 | 26 | 92 | 1.6 | 4.8 | 0.00 | 0.00 | 0.00 | 46 | 1018.2 |
| 20260504005829 | 26 | 146 | 1.6 | 8.0 | 0.00 | 0.00 | 0.00 | 44 | 1018.2 |
| 20260504004829 | 27 | 144 | 1.6 | 8.0 | 0.00 | 0.00 | 0.00 | 42 | 1018.2 |
| 20260504003829 | 27 | 173 | 4.8 | 8.0 | 0.00 | 0.00 | 0.00 | 42 | 1018.3 |
| 20260504002828 | 28 | 128 | 4.8 | 8.0 | 0.00 | 0.00 | 0.00 | 41 | 1018.4 |
| 20260504001828 | 28 | 95 | 4.8 | 8.0 | 0.00 | 0.00 | 0.00 | 41 | 1018.4 |
| 20260504000828 | 28 | 163 | 6.4 | 11.3 | 0.00 | 0.00 | 0.00 | 39 | 1018.5 |
| 20260503235828 | 29 | 136 | 1.6 | 12.9 | 0.00 | 0.00 | 0.00 | 39 | 1018.6 |
| 20260503234828 | 30 | 136 | 3.2 | 11.3 | 0.00 | 0.00 | 0.00 | 37 | 1018.5 |
| 20260503233828 | 30 | 149 | 3.2 | 12.9 | 0.00 | 0.00 | 0.00 | 39 | 1018.5 |
| 20260503232828 | 30 | 109 | 3.2 | 11.3 | 0.00 | 0.00 | 0.00 | 38 | 1018.5 |
| 20260503231828 | 30 | 194 | 3.2 | 9.7 | 0.00 | 0.00 | 0.00 | 38 | 1018.6 |
| 20260503230828 | 30 | 145 | 3.2 | 9.7 | 0.00 | 0.00 | 0.00 | 39 | 1018.7 |
| 20260503225828 | 30 | 130 | 4.8 | 8.0 | 0.00 | 0.00 | 0.00 | 37 | 1018.7 |
| 20260503224828 | 31 | 133 | 1.6 | 4.8 | 0.00 | 0.00 | 0.00 | 38 | 1018.8 |
| 20260503223828 | 30 | 113 | 4.8 | 6.4 | 0.00 | 0.00 | 0.00 | 39 | 1018.9 |
| 20260503222828 | 30 | 101 | 0.0 | 9.7 | 0.00 | 0.00 | 0.00 | 42 | 1019.0 |
| 20260503221827 | 30 | 203 | 1.6 | 11.3 | 0.00 | 0.00 | 0.00 | 43 | 1019.2 |
| 20260503220827 | 29 | 125 | 3.2 | 6.4 | 0.00 | 0.00 | 0.00 | 42 | 1019.4 |
| 20260503215828 | 30 | 97 | 4.8 | 9.7 | 0.00 | 0.00 | 0.00 | 40 | 1019.4 |
| 20260503214827 | 30 | 92 | 6.4 | 9.7 | 0.00 | 0.00 | 0.00 | 39 | 1019.4 |
| 20260503213827 | 30 | 97 | 4.8 | 8.0 | 0.00 | 0.00 | 0.00 | 40 | 1019.5 |
| 20260503212827 | 31 | 111 | 6.4 | 9.7 | 0.00 | 0.00 | 0.00 | 40 | 1019.8 |
| 20260503211827 | 30 | 150 | 4.8 | 8.0 | 0.00 | 0.00 | 0.00 | 40 | 1019.9 |
| 20260503210827 | 30 | 163 | 0.0 | 9.7 | 0.00 | 0.00 | 0.00 | 43 | 1020.0 |
| 20260503205827 | 29 | 140 | 1.6 | 6.4 | 0.00 | 0.00 | 0.00 | 43 | 1020.0 |
| 20260503204827 | 28 | 162 | 0.0 | 3.2 | 0.00 | 0.00 | 0.00 | 43 | 1020.2 |
| 20260503203827 | 29 | 162 | 0.0 | 1.6 | 0.00 | 0.00 | 0.00 | 43 | 1020.5 |
| 20260503202827 | 29 | 162 | 1.6 | 6.4 | 0.00 | 0.00 | 0.00 | 43 | 1020.7 |
| 20260503201827 | 29 | 204 | 0.0 | 3.2 | 0.00 | 0.00 | 0.00 | 43 | 1020.7 |
| 20260503200827 | 29 | 153 | 1.6 | 3.2 | 0.00 | 0.00 | 0.00 | 45 | 1021.0 |
| 20260503195827 | 28 | 210 | 0.0 | 6.4 | 0.00 | 0.00 | 0.00 | 45 | 1021.1 |
| 20260503194827 | 28 | 121 | 1.6 | 4.8 | 0.00 | 0.00 | 0.00 | 50 | 1021.3 |
| 20260503193826 | 27 | 259 | 1.6 | 6.4 | 0.00 | 0.00 | 0.00 | 50 | 1021.5 |
| 20260503192826 | 27 | 175 | 1.6 | 4.8 | 0.00 | 0.00 | 0.00 | 48 | 1021.7 |
| 20260503191826 | 26 | 248 | 0.0 | 4.8 | 0.00 | 0.00 | 0.00 | 48 | 1021.8 |
| 20260503190826 | 26 | 179 | 0.0 | 9.7 | 0.00 | 0.00 | 0.00 | 51 | 1022.0 |
| 20260503185826 | 26 | 193 | 0.0 | 8.0 | 0.00 | 0.00 | 0.00 | 51 | 1022.0 |
| 20260503184826 | 26 | 146 | 0.0 | 4.8 | 0.00 | 0.00 | 0.00 | 51 | 1022.1 |
| 20260503183826 | 25 | 109 | 0.0 | 6.4 | 0.00 | 0.00 | 0.00 | 51 | 1022.2 |
| 20260503182826 | 25 | 71 | 0.0 | 6.4 | 0.00 | 0.00 | 0.00 | 54 | 1022.4 |
| 20260503181826 | 25 | 128 | 0.0 | 9.7 | 0.00 | 0.00 | 0.00 | 52 | 1022.6 |
| 20260503180825 | 25 | 87 | 1.6 | 8.0 | 0.00 | 0.00 | 0.00 | 57 | 1022.7 |
| 20260503175825 | 24 | 76 | 0.0 | 12.9 | 0.00 | 0.00 | 0.00 | 57 | 1022.9 |
| 20260503174825 | 24 | 204 | 0.0 | 8.0 | 0.00 | 0.00 | 0.00 | 58 | 1023.2 |
| 20260503173826 | 23 | 166 | 1.6 | 4.8 | 0.00 | 0.00 | 0.00 | 59 | 1023.4 |
| 20260503172825 | 23 | 196 | 0.0 | 9.7 | 0.00 | 0.00 | 0.00 | 57 | 1023.5 |
| 20260503171825 | 23 | 198 | 0.0 | 4.8 | 0.00 | 0.00 | 0.00 | 59 | 1023.5 |
| 20260503170825 | 23 | 121 | 0.0 | 4.8 | 0.00 | 0.00 | 0.00 | 58 | 1023.6 |
| 20260503150824 | 18 | 155 | 1.6 | 8.0 | 0.00 | 0.00 | 0.00 | 75 | 1023.6 |
| 20260503130823 | 14 | 77 | 0.0 | 0.0 | 0.00 | 0.00 | 0.00 | 85 | 1022.9 |
| 20260503110822 | 13 | 300 | 0.0 | 0.0 | 0.00 | 0.00 | 0.00 | 84 | 1022.0 |
| 20260503080821 | 15 | 300 | 0.0 | 0.0 | 0.00 | 0.00 | 0.00 | 81 | 1021.7 |
| 20260503072821 | 16 | 300 | 0.0 | 0.0 | 0.00 | 0.00 | 0.00 | 81 | 1021.9 |
| 20260503071821 | 16 | 300 | 0.0 | 0.0 | 0.00 | 0.00 | 0.00 | 80 | 1022.0 |
| 20260503070820 | 16 | 300 | 0.0 | 0.0 | 0.00 | 0.00 | 0.00 | 80 | 1022.0 |
| 20260503054820 | 17 | 300 | 0.0 | 0.0 | 0.00 | 0.00 | 0.00 | 78 | 1022.2 |
| 20260503053850 | 17 | 300 | 0.0 | 0.0 | 0.00 | 0.00 | 0.00 | 77 | 1022.1 |